When you browse on this site, cookies collect data to enhance your experience and personalize the content and advertising you see.
Visit our Privacy Policy to learn more. By continuing to use the site, you agree to this use of cookies and data.
  • In Sweden
  • List of Countries
  • For 7 days
  • Water Temperature
  • Weather Map
  • Weather Widgets
  • user-avatar
    Login

    Hourly Weather Clearwater

    Today, 7 June, Sunday

    Time Temperature Precipitation Wind Pressure Humidity
    00:00 +27°C° 1 mm 8 mps 759 mmHg 79%
    01:00 +27°C° 1.1 mm 9 mps 758 mmHg 83%
    02:00 +27°C° 1.1 mm 9 mps 758 mmHg 86%
    03:00 +26°C° 1.1 mm 10 mps 758 mmHg 90%
    04:00 +26°C° 0.7 mm 9 mps 758 mmHg 90%
    05:00 +26°C° 0.7 mm 8 mps 758 mmHg 90%
    06:00 +26°C° 0.7 mm 7 mps 759 mmHg 90%
    07:00 +26°C° 1.1 mm 7 mps 759 mmHg 89%
    08:00 +27°C° 1.1 mm 7 mps 759 mmHg 88%
    09:00 +27°C° 1.1 mm 8 mps 759 mmHg 86%
    10:00 +27°C° 0.9 mm 8 mps 759 mmHg 84%
    11:00 +28°C° 0.9 mm 8 mps 759 mmHg 83%
    12:00 +28°C° 0.9 mm 8 mps 759 mmHg 81%
    13:00 +28°C° 1 mm 8 mps 759 mmHg 79%
    14:00 +29°C° 1 mm 8 mps 758 mmHg 77%
    15:00 +29°C° 1 mm 8 mps 758 mmHg 75%
    16:00 +29°C° 1.5 mm 8 mps 758 mmHg 75%
    17:00 +30°C° 1.5 mm 7 mps 759 mmHg 75%
    18:00 +30°C° 1.5 mm 7 mps 759 mmHg 75%
    19:00 +29°C° 1.3 mm 7 mps 759 mmHg 77%
    20:00 +29°C° 1.3 mm 6 mps 759 mmHg 78%
    21:00 +28°C° 1.3 mm 6 mps 759 mmHg 80%
    22:00 +28°C° 0.1 mm 6 mps 759 mmHg 80%
    23:00 +28°C° 0.1 mm 7 mps 759 mmHg 80%

    Tomorrow, 8 June, Monday

    Time Temperature Precipitation Wind Pressure Humidity
    00:00 +28°C° 0.1 mm 7 mps 759 mmHg 80%
    01:00 +28°C° 0.1 mm 7 mps 759 mmHg 80%
    02:00 +28°C° 0.1 mm 6 mps 759 mmHg 81%
    03:00 +27°C° 0.1 mm 6 mps 759 mmHg 81%
    04:00 +28°C° 0.4 mm 6 mps 759 mmHg 81%
    05:00 +28°C° 0.4 mm 6 mps 759 mmHg 80%
    06:00 +29°C° 0.4 mm 5 mps 760 mmHg 79%
    07:00 +29°C° 0.1 mm 5 mps 760 mmHg 78%
    08:00 +29°C° 0.1 mm 5 mps 760 mmHg 77%
    09:00 +29°C° 0.1 mm 5 mps 760 mmHg 76%
    10:00 +32°C° 0.1 mm 5 mps 760 mmHg 69%
    11:00 +33°C° 0.1 mm 5 mps 760 mmHg 62%
    12:00 +35°C° 0.1 mm 5 mps 760 mmHg 55%
    13:00 +35°C° 0 mm 5 mps 760 mmHg 55%
    14:00 +34°C° 0 mm 6 mps 760 mmHg 54%
    15:00 +34°C° 0 mm 6 mps 759 mmHg 54%
    16:00 +34°C° 0.1 mm 5 mps 759 mmHg 57%
    17:00 +33°C° 0.1 mm 5 mps 760 mmHg 60%
    18:00 +32°C° 0.1 mm 5 mps 760 mmHg 63%
    19:00 +32°C° 0.1 mm 5 mps 760 mmHg 65%
    20:00 +30°C° 0.1 mm 4 mps 760 mmHg 67%
    21:00 +30°C° 0.1 mm 4 mps 760 mmHg 69%
    22:00 +30°C° 0 mm 4 mps 760 mmHg 69%
    23:00 +29°C° 0 mm 3 mps 760 mmHg 70%

    Day after tomorrow, 9 June, Tuesday

    Time Temperature Precipitation Wind Pressure Humidity
    00:00 +29°C° 0 mm 3 mps 760 mmHg 70%
    01:00 +29°C° 0 mm 3 mps 760 mmHg 71%
    02:00 +28°C° 0 mm 3 mps 759 mmHg 72%
    03:00 +28°C° 0 mm 2 mps 759 mmHg 73%
    04:00 +28°C° 0 mm 3 mps 760 mmHg 74%
    05:00 +28°C° 0 mm 3 mps 760 mmHg 75%
    06:00 +28°C° 0 mm 3 mps 761 mmHg 76%
    07:00 +30°C° 0.9 mm 3 mps 761 mmHg 70%
    08:00 +31°C° 0.9 mm 3 mps 761 mmHg 65%
    09:00 +33°C° 0.9 mm 3 mps 761 mmHg 60%
    10:00 +33°C° 0.4 mm 4 mps 761 mmHg 57%
    11:00 +34°C° 0.4 mm 4 mps 761 mmHg 54%
    12:00 +35°C° 0.4 mm 5 mps 761 mmHg 51%
    13:00 +34°C° 0 mm 5 mps 761 mmHg 52%
    14:00 +33°C° 0 mm 4 mps 760 mmHg 53%
    15:00 +33°C° 0 mm 4 mps 760 mmHg 53%
    16:00 +31°C° 0 mm 3 mps 760 mmHg 52%
    17:00 +31°C° 0 mm 2 mps 760 mmHg 51%
    18:00 +31°C° 0 mm 2 mps 760 mmHg 49%
    19:00 +30°C° 0 mm 2 mps 760 mmHg 53%
    20:00 +30°C° 0 mm 2 mps 761 mmHg 57%
    21:00 +29°C° 0 mm 2 mps 761 mmHg 60%
    22:00 +29°C° 0 mm 2 mps 761 mmHg 61%
    23:00 +29°C° 0 mm 2 mps 761 mmHg 62%

    10 June, Wednesday

    Time Temperature Precipitation Wind Pressure Humidity
    00:00 +29°C° 0 mm 2 mps 760 mmHg 64%
    01:00 +29°C° 0 mm 2 mps 760 mmHg 66%
    02:00 +28°C° 0 mm 2 mps 760 mmHg 67%
    03:00 +28°C° 0 mm 3 mps 760 mmHg 69%
    04:00 +28°C° 0.3 mm 3 mps 761 mmHg 72%
    05:00 +28°C° 0.3 mm 3 mps 761 mmHg 75%
    06:00 +27°C° 0.3 mm 3 mps 761 mmHg 78%
    07:00 +27°C° 0.2 mm 3 mps 762 mmHg 75%
    08:00 +28°C° 0.2 mm 3 mps 762 mmHg 73%
    09:00 +28°C° 0.2 mm 3 mps 762 mmHg 70%
    10:00 +28°C° 0 mm 3 mps 762 mmHg 67%
    11:00 +28°C° 0 mm 3 mps 762 mmHg 65%
    12:00 +28°C° 0 mm 3 mps 762 mmHg 62%
    13:00 +29°C° 0 mm 2 mps 762 mmHg 60%
    14:00 +29°C° 0 mm 1 mps 761 mmHg 57%
    15:00 +30°C° 0 mm 1 mps 761 mmHg 55%
    16:00 +30°C° 0 mm 1 mps 761 mmHg 56%
    17:00 +30°C° 0 mm 1 mps 761 mmHg 58%
    18:00 +30°C° 0 mm 2 mps 761 mmHg 59%
    19:00 +29°C° 0 mm 2 mps 762 mmHg 62%
    20:00 +29°C° 0 mm 2 mps 762 mmHg 65%
    21:00 +28°C° 0 mm 2 mps 762 mmHg 69%
    22:00 +28°C° 0 mm 2 mps 762 mmHg 69%
    23:00 +28°C° 0 mm 2 mps 762 mmHg 70%

    11 June, Thursday

    Time Temperature Precipitation Wind Pressure Humidity
    00:00 +28°C° 0 mm 2 mps 762 mmHg 70%
    01:00 +28°C° 0 mm 2 mps 762 mmHg 73%
    02:00 +27°C° 0 mm 2 mps 762 mmHg 76%
    03:00 +27°C° 0 mm 2 mps 762 mmHg 79%
    04:00 +27°C° 0.1 mm 3 mps 762 mmHg 78%
    05:00 +27°C° 0.1 mm 3 mps 762 mmHg 77%
    06:00 +27°C° 0.1 mm 3 mps 763 mmHg 76%
    07:00 +28°C° 0 mm 3 mps 763 mmHg 70%
    08:00 +30°C° 0 mm 2 mps 763 mmHg 65%
    09:00 +31°C° 0 mm 2 mps 763 mmHg 60%
    10:00 +32°C° 0.1 mm 2 mps 763 mmHg 58%
    11:00 +32°C° 0.1 mm 2 mps 763 mmHg 56%
    12:00 +33°C° 0.1 mm 1 mps 763 mmHg 54%
    13:00 +34°C° 0.6 mm 2 mps 762 mmHg 54%
    14:00 +34°C° 0.6 mm 2 mps 762 mmHg 53%
    15:00 +34°C° 0.6 mm 2 mps 762 mmHg 53%
    16:00 +34°C° 1 mm 3 mps 762 mmHg 57%
    17:00 +33°C° 1 mm 3 mps 762 mmHg 61%
    18:00 +31°C° 1 mm 3 mps 762 mmHg 64%
    19:00 +30°C° 0.6 mm 3 mps 762 mmHg 67%
    20:00 +29°C° 0.6 mm 4 mps 762 mmHg 69%
    21:00 +29°C° 0.6 mm 5 mps 763 mmHg 71%
    22:00 +28°C° 0.1 mm 5 mps 763 mmHg 70%
    23:00 +27°C° 0.1 mm 5 mps 762 mmHg 69%

    12 June, Friday

    Time Temperature Precipitation Wind Pressure Humidity
    00:00 +26°C° 0.1 mm 5 mps 762 mmHg 69%
    01:00 +26°C° 0 mm 5 mps 762 mmHg 70%
    02:00 +26°C° 0 mm 5 mps 762 mmHg 72%
    03:00 +25°C° 0 mm 5 mps 762 mmHg 73%
    04:00 +26°C° 0 mm 5 mps 762 mmHg 75%
    05:00 +26°C° 0 mm 4 mps 762 mmHg 76%
    06:00 +26°C° 0 mm 4 mps 762 mmHg 77%
    07:00 +27°C° 0 mm 3 mps 762 mmHg 72%
    08:00 +29°C° 0 mm 3 mps 763 mmHg 67%
    09:00 +30°C° 0 mm 3 mps 763 mmHg 61%
    10:00 +31°C° 0 mm 2 mps 762 mmHg 55%
    11:00 +32°C° 0 mm 2 mps 762 mmHg 48%
    12:00 +34°C° 0 mm 2 mps 762 mmHg 42%
    13:00 +35°C° 0 mm 2 mps 761 mmHg 42%
    14:00 +35°C° 0 mm 3 mps 761 mmHg 41%
    15:00 +35°C° 0 mm 4 mps 760 mmHg 41%
    16:00 +34°C° 0 mm 4 mps 760 mmHg 47%
    17:00 +34°C° 0 mm 4 mps 760 mmHg 53%
    18:00 +33°C° 0 mm 4 mps 760 mmHg 59%
    19:00 +32°C° 0 mm 4 mps 761 mmHg 64%
    20:00 +30°C° 0 mm 4 mps 761 mmHg 68%
    21:00 +29°C° 0 mm 4 mps 761 mmHg 73%
    22:00 +28°C° 0 mm 4 mps 761 mmHg 74%
    23:00 +27°C° 0 mm 5 mps 761 mmHg 75%
    Show more